ATLAS 5 CENTAUR R/B, 43227

Orbit data source: Space-Track

ATLAS 5 CENTAUR R/B, 43227 is space debris in HEO originally from a launch on Thu, 01 Mar 2018 UTC launched from the Air Force Eastern Test Range (AFETR). Debris objects in space refer to the collection of defunct objects orbiting the Earth. Examples of debris include non-operational satellites, rocket bodies, and fragments generated from explosions, collisions, or faulty payload assembly.

Loading next visibility...
Identifier
43227, 2018-022B
Orbit
HEO
Country
Flag of USUS
Related business
Flag of USUnited Launch Alliance/Lockheed Martin (US)
Manufacturer
ULA Decatur
Mission
Spacecraft
Bus & Motor
CENTAUR SEC, RL10C-1
Mass
~2,020 kg wet, 2,020 kg dry
Launch date (UTC)
2018-03-01 (8 years ago)
Launch vehicle
Unknown
Launch site
Air Force Eastern Test Range (AFETR)
Object type
Payload
Rocket body
Debris
Shape & HBR
Cyl + 1 Nozzle, 5.8 m
Radar Cross Section
32.260 m², Large (>1 m²)

Expand to show TLE details & history
Last TLE update: 1 day ago

TLE from 1 day ago
0 ATLAS 5 CENTAUR R/B
1 43227U 18022B   25260.75125001 -.00000083  00000-0  00000-0 0  9999
2 43227  10.2384  36.9772 4966024  32.6266 350.0525  1.88584172  6952
Epoch: 2025-09-17T18:01Z
TLE epoch observation values (Epoch: 2025-09-17T18:01:48Z)
Latitude
0.00003°
Longitude
129.62094°
Altitude
8,348.279 km
Speed
6.303 km/s
True Right ascension
02h 27m 58s
True Declination
0° 00' 00"
Sunlit
Object was in daylight at epoch
Visualization orbit readout
Latitude
Unknown
Longitude
Unknown
Altitude
Unknown
Speed
Unknown
Apparent Right ascension
Unknown
Apparent Declination
Unknown
Sunlit
N/A
Visualization observer readout
Local Sidereal Time
11:58:28
Azimuth
Unknown
Elevation
Unknown
Doppler factor
Unknown
Orbital elements
Apogee altitude
35,041.673 km
Perigee altitude
7,553.842 km
Semi-major axis
27,675.894 km
Eccentricity
0.4966
Inclination
10.2384°
RAAN
36.9772°
Arg. of periapsis
32.6266°
True anomaly
327.16082°
Mean anomaly
350.0525°
Eccentric anomaly
340.60272°
Mean motion
0.4714 °/min
Orbital period
763.68 mins
BSTAR
0
Loading maneuver chart data...
Computing Atmospheric mass density...
Loading historical data...
Loading historical data...
Loading historical data...
Loading historical data...
Loading historical data...
Loading historical data...
Loading historical data...
Other satellites on launch #22 in the year 2018 (2018-03-01 UTC)

Documentation

Showing up to 5 results
|